CW8688 Weather Reports


Display with metric or nautical units.
time (UTC)temp
F
wind
direction
speed
MPH
gust
MPH
rain 1hr
in
rain 24hr
in
rain mn
in
humidity
%
barometer
mb
20260507130117 54 256 0.0 0.0 0.00 0.00 0.00 95 1015.6
20260507125216 53 256 0.0 0.0 0.00 0.00 0.00 95 1015.6
20260507124315 53 256 0.0 0.0 0.00 0.00 0.00 95 1015.2
20260507123414 53 233 0.0 0.0 0.00 0.00 0.00 95 1015.2
20260507122513 53 233 0.0 0.0 0.00 0.00 0.00 95 1015.2
20260507121613 52 233 0.0 0.0 0.00 0.00 0.00 95 1015.2
20260507120712 52 233 0.0 0.0 0.00 0.00 0.00 95 1015.2
20260507115811 53 233 0.0 0.0 0.00 0.00 0.00 95 1015.2
20260507114838 53 233 0.0 0.0 0.00 0.00 0.00 95 1015.2
20260507113937 53 233 0.0 0.0 0.00 0.00 0.00 95 1015.2
20260507113037 52 233 0.0 0.0 0.00 0.00 0.00 95 1015.2
20260507112136 53 233 0.0 0.0 0.00 0.00 0.00 95 1015.2
20260507111234 53 233 0.0 0.0 0.00 0.00 0.00 95 1015.2
20260507110334 53 233 0.0 0.0 0.00 0.00 0.00 95 1015.2
20260507105433 54 233 0.0 0.0 0.00 0.00 0.00 95 1015.2
20260507104532 53 233 0.0 0.0 0.00 0.00 0.00 95 1015.2
20260507103600 53 233 0.0 0.0 0.00 0.00 0.00 95 1015.2
20260507102659 53 233 0.0 0.0 0.00 0.00 0.00 95 1015.6
20260507101758 54 233 0.0 0.0 0.00 0.00 0.00 95 1015.6
20260507100856 54 233 0.0 0.0 0.00 0.00 0.00 95 1015.6
20260507095954 53 233 0.0 0.0 0.00 0.00 0.00 94 1015.6
20260507095054 53 233 0.0 0.0 0.00 0.00 0.00 94 1015.6
20260507094121 53 233 0.0 0.0 0.00 0.00 0.00 94 1015.6
20260507093149 53 233 0.0 0.0 0.00 0.00 0.00 94 1015.6
20260507092248 54 233 0.0 0.0 0.00 0.00 0.00 94 1015.9
20260507091346 55 233 0.0 0.0 0.00 0.00 0.00 94 1015.9
20260507090444 54 233 0.0 0.0 0.00 0.00 0.00 94 1015.9
20260507085543 55 233 0.0 0.0 0.00 0.00 0.00 94 1015.9
20260507084642 55 233 0.0 0.0 0.00 0.00 0.00 94 1016.3
20260507083741 55 233 0.0 0.0 0.00 0.00 0.00 94 1016.3
20260507082841 55 250 0.0 0.0 0.00 0.00 0.00 94 1016.3
20260507081940 55 250 0.0 0.0 0.00 0.00 0.00 94 1016.3
20260507081039 55 250 0.0 0.0 0.00 0.00 0.00 93 1016.3
20260507080138 55 249 0.0 0.0 0.00 0.00 0.00 93 1016.3
20260507075206 56 249 0.0 0.0 0.00 0.00 0.00 93 1016.3
20260507074305 56 250 0.0 0.0 0.00 0.00 0.00 93 1016.6
20260507073404 56 250 0.0 0.0 0.00 0.00 0.00 93 1016.6
20260507072503 56 250 0.0 0.0 0.00 0.00 0.00 93 1016.6
20260507071602 56 250 0.0 0.0 0.00 0.00 0.00 93 1016.6
20260507070701 56 250 0.0 0.0 0.00 0.00 0.00 93 1016.6
20260507065801 57 250 0.0 0.0 0.00 0.00 0.00 93 1016.6
20260507064900 57 250 0.0 0.0 0.00 0.00 0.00 93 1016.6
20260507063958 56 250 0.0 0.0 0.00 0.00 0.00 93 1016.6
20260507063058 57 250 0.0 0.0 0.00 0.00 0.00 92 1016.6
20260507062157 57 249 0.0 0.0 0.00 0.00 0.00 92 1016.6
20260507061256 57 250 0.0 0.0 0.00 0.00 0.00 92 1016.6
20260507060355 57 250 0.0 0.0 0.00 0.00 0.00 91 1016.6
20260507055454 57 250 0.0 0.0 0.00 0.00 0.00 91 1016.6
20260507054553 58 250 0.0 0.0 0.00 0.00 0.00 91 1016.6
20260507053652 58 250 0.0 0.0 0.00 0.00 0.00 91 1016.6
20260507052751 58 250 0.0 0.0 0.00 0.00 0.00 91 1016.6
20260507051850 58 250 0.0 0.0 0.00 0.00 0.00 91 1016.6
20260507050918 58 250 0.0 0.0 0.00 0.00 0.00 90 1016.6
20260507050017 58 250 0.0 0.0 0.00 0.00 0.00 90 1016.6
20260507045116 58 274 0.0 0.0 0.00 0.00 0.00 89 1016.6
20260507044215 59 274 0.0 0.0 0.00 0.00 0.00 89 1016.6
20260507043314 59 274 0.0 0.0 0.00 0.00 0.00 89 1016.6
20260507042413 59 250 0.0 0.0 0.00 0.00 0.00 89 1016.6
20260507041441 59 256 0.0 2.0 0.00 0.00 0.00 88 1016.3
20260507040540 59 270 0.0 2.0 0.00 0.00 0.00 87 1016.3
20260507035639 60 255 0.0 2.0 0.00 0.00 0.00 87 1016.3
20260507034737 60 285 2.0 4.0 0.00 0.00 0.00 87 1016.3
20260507033836 60 256 2.0 4.0 0.00 0.00 0.00 86 1016.3
20260507032936 60 240 0.0 4.0 0.00 0.00 0.00 86 1015.9
20260507032003 61 269 2.0 4.0 0.00 0.00 0.00 86 1015.9
20260507031031 61 252 2.0 5.0 0.00 0.00 0.00 85 1015.9
20260507030130 61 252 2.0 7.0 0.00 0.00 0.00 84 1015.9
20260507025229 62 258 2.0 7.0 0.00 0.00 0.00 83 1015.9
20260507024329 62 257 2.0 4.0 0.00 0.00 0.00 81 1015.6
20260507023428 63 241 2.0 5.0 0.00 0.00 0.00 80 1015.6
20260507022527 63 258 2.0 7.0 0.00 0.00 0.00 78 1015.6
20260507021626 65 266 2.0 7.0 0.00 0.00 0.00 76 1015.6
20260507020725 66 269 2.0 7.0 0.00 0.00 0.00 74 1015.6
20260507015824 66 273 2.0 7.0 0.00 0.00 0.00 73 1015.6
20260507014923 66 277 2.0 7.0 0.00 0.00 0.00 73 1015.6
20260507014022 67 262 2.0 9.0 0.00 0.00 0.00 71 1015.6
20260507013121 67 266 3.0 9.0 0.00 0.00 0.00 70 1015.6
20260507012220 67 257 4.0 9.0 0.00 0.00 0.00 69 1015.6
20260507011320 67 267 3.0 7.0 0.00 0.00 0.00 65 1015.2
20260507010418 67 260 3.0 11.0 0.00 0.00 0.00 67 1015.2
20260507005517 68 261 3.0 11.0 0.00 0.00 0.00 66 1015.2
20260507004616 69 268 2.0 7.0 0.00 0.00 0.00 63 1015.2
20260507003644 68 298 3.0 9.0 0.00 0.00 0.00 64 1015.2
20260507002744 68 253 5.0 9.0 0.00 0.00 0.00 63 1015.2
20260507001843 68 263 3.0 9.0 0.00 0.00 0.00 62 1015.2
20260507000911 68 273 2.0 13.0 0.00 0.00 0.00 62 1015.2
20260506235939 69 259 5.0 13.0 0.00 0.00 0.00 61 1015.2
20260506235039 69 302 2.0 13.0 0.00 0.00 0.00 64 1015.2
20260506234107 68 255 5.0 13.0 0.00 0.00 0.00 64 1015.2
20260506233206 68 249 5.0 11.0 0.00 0.00 0.00 62 1014.9
20260506232306 68 265 3.0 11.0 0.00 0.00 0.00 63 1015.2
20260506231404 69 248 4.0 13.0 0.00 0.00 0.00 64 1015.2
20260506230431 68 257 4.0 13.0 0.00 0.00 0.00 66 1015.2
20260506225531 69 260 4.0 11.0 0.00 0.00 0.00 65 1015.2
20260506224630 69 268 4.0 11.0 0.00 0.00 0.00 67 1015.6
20260506223729 67 244 3.0 11.0 0.00 0.00 0.00 69 1015.6
20260506222828 68 259 4.0 11.0 0.00 0.00 0.00 68 1015.6
20260506221856 68 261 4.0 14.0 0.00 0.00 0.00 67 1015.6
20260506220955 68 250 4.0 14.0 0.00 0.00 0.00 66 1015.6
20260506220054 68 259 5.0 13.0 0.00 0.00 0.00 66 1015.9
20260506215122 69 267 3.0 13.0 0.00 0.00 0.00 66 1015.9
20260506214150 69 245 4.0 13.0 0.00 0.00 0.00 65 1015.9
20260506213217 69 266 3.0 13.0 0.00 0.00 0.00 66 1015.9
20260506212317 69 257 5.0 14.0 0.00 0.00 0.00 64 1015.9
20260506211415 69 256 4.0 14.0 0.00 0.00 0.00 64 1015.9
20260506210514 69 280 3.0 16.0 0.00 0.00 0.00 65 1015.9
20260506205613 69 285 4.0 16.0 0.00 0.00 0.00 65 1015.9
20260506204712 69 266 4.0 11.0 0.00 0.00 0.00 65 1015.9
20260506203811 69 264 0.0 0.0 0.00 0.00 0.00 65 1015.9
20260506202839 70 264 0.0 0.0 0.00 0.00 0.00 62 1016.3
20260506201938 70 249 0.0 0.0 0.00 0.00 0.00 64 1016.3
20260506201037 69 233 0.0 0.0 0.00 0.00 0.00 64 1016.3
20260506200137 69 306 0.0 0.0 0.00 0.00 0.00 66 1016.3
20260506195235 69 205 0.0 0.0 0.00 0.00 0.00 64 1016.3
20260506194335 70 316 0.0 0.0 0.00 0.00 0.00 64 1016.6
20260506193403 72 258 0.0 0.0 0.00 0.00 0.00 59 1016.6
20260506192502 73 311 0.0 0.0 0.00 0.00 0.00 59 1016.6
20260506191530 72 226 0.0 0.0 0.00 0.00 0.00 59 1016.6
20260506190629 72 36 0.0 0.0 0.00 0.00 0.00 59 1016.6
20260506185728 71 242 0.0 0.0 0.00 0.00 0.00 59 1016.9
20260506184827 71 267 0.0 0.0 0.00 0.00 0.00 61 1016.9
20260506183926 71 184 0.0 0.0 0.00 0.00 0.00 60 1016.9
20260506183025 70 207 0.0 0.0 0.00 0.00 0.00 62 1016.9
20260506182124 68 266 0.0 0.0 0.00 0.00 0.00 64 1017.3
20260506181223 70 265 0.0 0.0 0.00 0.00 0.00 60 1017.3
20260506180322 69 299 0.0 0.0 0.00 0.00 0.00 62 1017.3
20260506175350 69 301 0.0 0.0 0.00 0.00 0.00 61 1017.3
20260506174418 69 278 0.0 0.0 0.00 0.00 0.00 61 1017.6
20260506173517 68 86 0.0 0.0 0.00 0.00 0.00 62 1017.6
20260506172616 67 191 0.0 0.0 0.00 0.00 0.00 62 1017.6
20260506171643 67 194 0.0 0.0 0.00 0.00 0.00 64 1017.6
20260506170711 67 295 0.0 0.0 0.00 0.00 0.00 65 1017.6
20260506165738 67 248 0.0 0.0 0.00 0.00 0.00 64 1017.6
20260506164837 66 287 0.0 0.0 0.00 0.00 0.00 67 1017.6
20260506163936 64 299 0.0 0.0 0.00 0.00 0.00 70 1017.9
20260506163035 63 286 0.0 0.0 0.00 0.00 0.00 73 1017.9
20260506162134 63 262 0.0 0.0 0.00 0.01 0.00 71 1017.9
20260506161233 65 229 0.0 0.0 0.00 0.01 0.00 68 1017.9
20260506160333 65 240 0.0 0.0 0.00 0.01 0.00 72 1017.9
20260506155432 64 300 0.0 0.0 0.00 0.01 0.00 73 1017.6
20260506154530 64 244 0.0 0.0 0.00 0.01 0.00 71 1017.6
20260506153629 64 266 0.0 0.0 0.00 0.01 0.00 72 1017.9
20260506152729 63 37 0.0 0.0 0.00 0.01 0.00 74 1017.9
20260506151828 62 338 0.0 0.0 0.00 0.01 0.00 76 1017.9
20260506150927 61 36 0.0 0.0 0.00 0.01 0.00 78 1017.9
20260506150026 60 276 0.0 0.0 0.00 0.01 0.00 80 1017.9
20260506145053 59 278 0.0 0.0 0.00 0.01 0.00 83 1017.9
20260506144152 58 271 0.0 0.0 0.00 0.02 0.00 87 1017.9
20260506143250 57 271 0.0 0.0 0.00 0.02 0.00 88 1017.6
20260506142350 57 271 0.0 0.0 0.00 0.02 0.00 91 1017.6
20260506141449 55 271 0.0 0.0 0.00 0.05 0.00 93 1017.6
20260506140548 53 271 0.0 0.0 0.00 0.08 0.00 93 1017.6
20260506135647 52 271 0.0 0.0 0.00 0.08 0.00 93 1017.6
20260506134746 51 271 0.0 0.0 0.00 0.08 0.00 93 1017.6
20260506133845 52 271 0.0 0.0 0.00 0.08 0.00 93 1017.6
20260506132944 52 271 0.0 0.0 0.00 0.08 0.00 93 1017.3
20260506132043 51 271 0.0 0.0 0.00 0.08 0.00 93 1017.3
20260506131142 50 271 0.0 0.0 0.00 0.08 0.00 93 1017.3